Regional Weather Roundup
Issued by NWS

Home | Current Version | Previous Version | Text Only | Print | Product List | Glossary On
Versions: 1 2 3 4 5 6 7 8 9 10 11 12 13 14 15 16 17 18 19 20 21 22 23 24 25 26 27 28 29 30 31 32 33 34 35 36 37 38 39 40 41 42 43 44 45 46 47 48 49 50
000
ASUS44 KMEG 242200
RWRTN
TENNESSEE HOURLY STATE WEATHER ROUNDUP
NATIONAL WEATHER SERVICE MEMPHIS TN
500 PM CDT SUN MAY 24 2015

TNZ002-004-019-021-049-052-054-088>092-242300-
WEST TENNESSEE

CITY           SKY/WX    TMP DP  RH WIND       PRES   REMARKS
MEMPHIS INTL   PTSUNNY   86  69  56 SE17G24   29.97F HX  90
NWS MEMPHIS      N/A     84 N/A N/A MISG        N/A
JACKSON        PTSUNNY   83  68  60 SE6       30.01F
DYERSBURG      CLOUDY    84  59  42 SE13G18   29.99F
PARIS          MOSUNNY   81  66  61 SE9       30.04S
LEXINGTON      SUNNY     79  70  73 SE3       30.05S
$$

TNZ008-025-027-028-033-062-065-066-242300-
NORTH MIDDLE TENNESSEE

CITY           SKY/WX    TMP DP  RH WIND       PRES   REMARKS
NASHVILLE      MOSUNNY   83  64  52 S13G20    30.11F
CLARKSVILLE    MOSUNNY   83  65  54 SE15G26   30.06F
COOKEVILLE     SUNNY     79  63  57 S7        30.17F
CROSSVILLE     SUNNY     77  55  46 S7        30.23F
$$

TNZ061-075-076-078-094-096-097-242300-
SOUTH MIDDLE TENNESSEE

CITY           SKY/WX    TMP DP  RH WIND       PRES   REMARKS
FAYETTEVILLE   PTSUNNY  N/A N/A N/A MISG      30.15S
TULLAHOMA      MOSUNNY   79  63  57 SE12      30.18S
WINCHESTER     MOSUNNY   79  63  57 SE15      30.17S
MCMINNVILLE    MOSUNNY   82  64  54 SE8       30.17F
COLUMBIA       MOSUNNY   84  68  58 SE9       30.10S
SHELBYVILLE    PTSUNNY   82  66  57 SE14      30.15S
$$

TNZ017-018-042-046-047-242300-
NORTHEAST TENNESSEE

CITY           SKY/WX    TMP DP  RH WIND       PRES   REMARKS
TRI CITIES     MOSUNNY   83  48  29 SW8       30.25S
ELIZABETHTON   CLEAR     79  52  38 S8        30.26S
$$

TNZ012-013-036-069-073-074-242300-
CENTRAL EAST TENNESSEE

CITY           SKY/WX    TMP DP  RH WIND       PRES   REMARKS
KNOXVILLE      MOSUNNY   83  53  35 SW9       30.20F
OAK RIDGE      SUNNY     84  54  35 MISG      30.22F
GATLINBURG     CLEAR     81  52  36 CALM      30.21F
$$

TNZ083-085-099-242300-
SOUTHEAST TENNESSEE

CITY           SKY/WX    TMP DP  RH WIND       PRES   REMARKS
CHATTANOOGA    PTSUNNY   83  59  44 SE15G22   30.19F
$$

SKY/WX REPORTED AS FAIR MEANS FEW OR NO CLOUDS BELOW
12 THOUSAND FEET.



USA.gov is the U.S. government's official web portal to all federal, state and local government web resources and services.